Tracking 30402 objects as of 12-May-2025
HD Live streaming from Space Station
objects crossing your sky now

STARLINK-6161

Track STARLINK-6161 now!
10-day predictions
STARLINK-6161 is classified as:


NORAD ID: 56380
Int'l Code: 2023-061G
Perigee: 565.4 km
Apogee: 567.1 km
Inclination: 43.0 °
Period: 95.8 minutes
Semi major axis: 6937 km
RCS: Unknown
Launch date: May 4, 2023
Source: United States (US)
Launch site: AIR FORCE EASTERN TEST RANGE (AFETR)
Your satellite tracking list
Your tracking list is empty




NASA's NSSDC Master Catalog

Two Line Element Set (TLE):
1 56380U 23061G   25132.13913083 -.00000549  00000-0 -25568-4 0  9995
2 56380  43.0064  36.0034 0001247 268.3082  91.7617 15.02532674111683
Source of the keplerian elements: AFSPC